User: anonymous
Location: ROBOsky.com Wild Flower Ridge Observatory
(43.9736°N, 79.9739°W)
Time: 22:17:26
(UTC-04:00)
Language:

Cosmos 1190 Rocket - Orbit

View from above orbital plane
View from above orbital plane
View from above satellite
View from above satellite

Ground track
Ground track

The orbit data is extracted from the following two-line orbital elements,

1 11870U 80056B   14265.11955987  .00000273  00000-0  10180-3 0  8162
2 11870 074.0528 242.1020 0015205 081.7078 349.7442 14.36527124791331
Epoch (UTC): 22 September 2014 02:52:09
Eccentricity: 0.0015205
inclination: 74.0528°
perigee height: 759 km
apogee height: 781 km
right ascension of ascending node: 242.1020°
argument of perigee: 81.7078°
revolutions per day: 14.36527124
mean anomaly at epoch: 349.7442°
orbit number at epoch: 79133

The dashed part of the orbit path shows where the satellite is in the earth's shadow,  

DLR